Home > Weather > Grimstad > Past weeks

Flag for Norway Past Weather in Grimstad, Norway — Yesterday and Last 2 Weeks

Now
70 °F

Mild.


Feels Like: 70 °F
Forecast: 57 / 73 °F
Wind: 2 mph from South

Location: Torungen Fyr

Current Time: Jul 23, 2016 at 5:08:26 PM

Latest Report: Jul 23, 2016 at 4:00 PM


Visibility: N/A

Pressure: 30.15 "Hg

Humidity: 82%

Dew Point: 64 °F

Location of GrimstadLocation

Past Weather in Grimstad — Graph

°F

Grimstad Temperature Yesterday

Maximum temperature yesterday: 68 °F (at 4:00 PM)
Minimum temperature yesterday: 64 °F (at 4:00 AM)
Average temperature yesterday: 66 °F

High & Low Weather Summary for the Past Weeks

 TemperatureHumidityPressure
High72 °F (Jul 9, 4:00 PM)97% (Jul 15, 4:00 AM)30.15 "Hg (Jul 15, 4:00 AM)
Low54 °F (Jul 17, 6:00 AM)36% (Jul 9, 4:00 PM)29.47 "Hg (Jul 11, 6:00 AM)
Average63 °F81%29.85 "Hg
* Reported Jul 8 3:00 PM — Jul 23 3:00 PM, Grimstad, Weather by CustomWeather, © 2016

Note: Actual official high and low records may vary slightly from our data, if they occured in-between our weather recording intervals... More about our weather records

Advertising

Grimstad Weather History for the Previous 24 Hours

Scroll right to see more
 ConditionsComfort  
Time TempWeatherWind HumidityBarometerVisibility
3:00 PM
Sat, Jul 23
69 °FMild.2 mph83%30.15 "HgN/A
2:00 PM69 °FMild.2 mph83%30.15 "HgN/A
1:00 PM67 °FMild.2 mph88%30.15 "HgN/A
12:00 PM67 °FMild.2 mph92%30.15 "HgN/A
11:00 AM67 °FMild.2 mph91%30.14 "HgN/A
10:00 AM65 °FMild.2 mph91%30.14 "HgN/A
9:00 AM65 °FMild.3 mph94%30.14 "HgN/A
8:00 AM65 °FMild.1 mph95%30.12 "HgN/A
7:00 AM65 °FMild.1 mph95%30.11 "HgN/A
6:00 AM64 °FMild.2 mph95%30.11 "HgN/A
5:00 AM65 °FMild.2 mph95%30.11 "HgN/A
4:00 AM65 °FMild.2 mph95%30.12 "HgN/A
3:00 AM65 °FMild.2 mph95%30.12 "HgN/A
2:00 AM66 °FMild.1 mph94%30.11 "HgN/A
1:00 AM65 °FMild.2 mph94%30.11 "HgN/A
12:00 AM66 °FMild.2 mph94%30.10 "HgN/A
11:00 PM
Fri, Jul 22
66 °FMild.2 mph93%30.11 "HgN/A
10:00 PM67 °FMild.1 mph90%30.11 "HgN/A
9:00 PM67 °FMild.1 mph88%30.10 "HgN/A
8:00 PM68 °FMild.1 mph86%30.10 "HgN/A
7:00 PM67 °FMild.2 mph87%30.09 "HgN/A
6:00 PM67 °FMild.5 mph87%30.09 "HgN/A
5:00 PM67 °FMild.5 mph85%30.10 "HgN/A
Weather by CustomWeather, © 2016

See weather overviewHow to use our weather pages